Theta_e
302 303 303 303 303 303 300 301 303 303 303 303 302 301 298 296 297 299 300 299 299 298 298 300 303 301 300 300 300 301 301 302 303 308 313 315 316 323 323 322 321 325 324 324
302 301 301 301 301 302 301 299 301 302 303 302 301 298 296 297 299 300 299 299 299 299 299 299 302 301 300 300 300 300 301 301 303 307 313 315 316 321 324 324 324 324 323 322
301 299 301 301 300 298 296 297 297 295 295 294 298 299 299 299 300 300 299 298 298 297 298 301 301 300 300 300 300 300 300 301 302 306 310 313 314 317 322 323 323 323 322 321
302 301 300 298 297 298 297 295 294 295 295 296 298 300 301 301 300 298 298 299 298 297 298 301 300 300 300 300 299 299 299 301 301 303 305 309 318 318 322 322 322 320 319 318
303 299 298 299 298 296 295 295 299 298 299 298 297 297 297 299 298 297 298 298 298 298 298 300 299 299 300 300 299 299 299 300 301 302 303 307 317 319 320 320 319 317 316 315
300 301 302 297 298 297 297 297 299 299 298 297 296 295 294 295 295 296 298 298 298 299 298 299 300 299 300 300 299 298 299 299 300 301 302 306 317 319 318 318 316 315 313 313
302 303 299 298 299 298 296 296 298 297 297 297 296 294 294 295 297 298 298 300 301 300 300 300 300 300 299 299 299 299 299 299 299 300 302 308 317 318 316 313 311 310 309 309
299 301 300 297 298 296 294 296 297 297 297 297 296 295 296 298 298 298 297 299 299 299 299 300 300 299 299 299 299 299 299 298 299 300 303 311 313 313 312 310 308 307 306 305
298 298 297 297 298 298 296 296 296 298 297 296 296 295 297 298 297 296 297 298 299 299 299 299 299 299 299 299 299 299 299 298 299 301 304 311 313 310 309 308 307 307 305 304
299 298 298 297 298 298 297 295 295 296 296 296 296 297 298 296 295 295 296 298 299 299 298 298 299 298 299 299 299 299 299 299 300 301 307 309 309 309 308 308 307 306 304 303
296 297 297 297 296 294 294 295 296 296 296 297 299 297 296 295 295 295 296 298 298 298 298 298 298 298 298 298 298 298 299 299 300 302 308 308 308 308 309 308 308 306 304 302
295 294 295 297 296 295 295 296 295 295 297 298 297 296 296 295 296 296 297 298 298 298 298 298 297 297 297 298 298 299 298 299 301 307 307 306 306 306 306 307 306 305 303 302
294 295 296 296 297 294 295 295 296 297 298 297 297 296 296 295 296 298 298 297 298 298 298 297 297 298 300 301 301 300 298 300 306 307 306 306 305 304 303 303 303 302 302 301
294 294 295 294 294 294 295 296 296 295 294 294 296 296 296 296 296 297 297 297 297 297 297 297 299 301 305 306 303 300 300 305 307 307 306 305 304 303 303 302 302 301 300 300
293 294 293 293 294 293 294 294 295 293 292 293 296 296 296 295 296 297 297 297 297 297 297 298 300 301 303 302 301 301 307 308 307 306 305 304 303 303 303 302 301 301 300 299
294 293 292 292 292 293 293 294 294 293 292 294 294 296 296 296 296 297 297 297 296 297 297 298 300 300 306 306 307 308 308 307 306 305 304 304 304 303 303 302 301 299 298 296
293 293 293 293 291 292 292 292 292 291 293 294 294 296 296 296 296 297 297 296 296 296 297 298 300 300 309 308 307 307 307 306 305 304 304 303 303 302 301 300 299 298 297 296
292 292 293 294 292 290 291 292 293 295 294 295 296 296 296 295 295 297 297 296 295 296 297 298 299 300 306 307 307 306 306 305 304 304 303 303 302 301 300 299 298 296 295 295
294 294 294 292 292 291 292 293 294 295 295 295 296 295 295 296 296 297 297 296 295 296 297 298 299 300 304 306 306 305 305 305 304 303 302 302 301 300 299 298 296 295 294 293
293 294 293 293 292 292 293 293 294 295 295 296 296 295 295 296 297 297 297 296 295 295 298 299 299 300 302 306 305 306 305 304 303 302 302 300 299 298 297 296 295 294 293 292
293 294 294 294 293 294 294 294 294 294 296 295 295 295 295 296 297 297 296 296 295 296 298 299 299 299 301 305 306 306 305 303 302 302 301 300 299 297 296 295 294 293 292 292
293 293 293 293 293 292 293 294 294 295 295 295 295 295 296 296 297 297 297 296 295 296 298 298 299 299 301 304 306 306 304 303 302 301 300 300 299 297 296 295 294 293 292 292
293 293 293 292 293 293 295 295 295 295 295 294 294 295 295 297 296 296 296 296 295 296 297 298 299 299 300 302 304 305 304 303 302 301 300 300 298 297 296 295 294 293 293 293
294 294 294 294 294 294 293 294 295 295 295 295 295 296 296 296 296 296 296 296 296 296 297 297 298 299 299 301 303 304 303 302 302 301 300 299 298 297 297 296 295 294 294 293
294 294 294 294 294 294 294 295 295 295 296 296 296 297 296 296 295 295 296 296 296 296 297 297 298 298 298 299 301 304 303 302 301 301 300 299 298 297 297 296 296 295 295 294
292 292 293 294 294 294 295 295 295 295 295 296 296 297 297 295 295 295 295 296 296 296 296 296 297 299 298 298 300 302 303 303 302 301 301 300 298 298 297 297 297 297 296 295
291 291 292 292 293 293 293 293 293 294 295 295 296 297 296 295 295 295 294 294 295 295 296 296 296 298 299 298 298 300 302 303 303 302 300 300 299 298 298 298 298 298 297 295
Wind_Speed
10 12 12 16 17 22 12 16 8 20 13 18 12 14 6 8 5 6 6 6 6 5 5 6 9 14 19 23 25 31 30 29 30 28 25 23 17 8 16 25 24 26 27 29
22 16 14 18 18 18 18 15 8 15 17 14 15 8 5 5 4 4 6 6 6 5 6 6 5 10 18 26 25 31 29 27 28 27 22 17 12 15 23 24 27 30 31 34
19 8 7 8 10 8 5 6 5 5 7 5 2 1 1 1 2 6 7 7 7 7 7 6 5 9 16 23 28 27 28 26 27 26 28 27 5 14 21 25 30 30 31 34
8 2 5 6 8 10 10 6 6 6 6 4 1 2 1 2 3 7 8 7 9 10 14 9 3 7 13 22 29 22 25 22 23 26 29 34 7 12 22 26 29 31 34 38
3 3 7 7 6 2 3 4 3 1 3 3 2 1 3 3 4 6 7 9 15 21 20 7 5 10 14 19 23 22 20 21 24 24 29 29 16 10 23 25 28 29 38 41
1 3 5 3 1 2 2 3 2 1 2 2 2 3 4 6 6 7 14 19 17 17 8 4 13 16 17 20 19 19 21 24 25 27 29 28 6 19 22 26 26 32 35 40
9 6 6 6 8 2 1 5 3 3 0 2 2 4 5 7 6 12 12 9 12 11 11 15 16 18 19 20 20 20 22 23 25 27 29 27 11 23 27 30 30 31 32 33
2 3 5 4 1 3 4 5 3 1 3 2 3 5 4 6 7 8 10 14 15 14 16 20 23 20 19 18 22 20 23 22 25 26 24 9 18 23 33 34 31 32 34 30
4 5 7 12 8 10 6 8 4 3 4 4 4 4 6 5 7 7 12 15 15 15 19 23 22 24 23 24 22 21 21 21 25 24 22 15 23 23 27 31 30 28 31 29
5 4 8 18 19 16 14 9 6 4 4 2 2 4 5 6 6 7 14 15 18 19 19 21 22 25 26 25 21 20 19 21 20 19 10 16 25 26 27 26 28 28 29 30
12 14 14 11 5 10 12 3 3 2 1 1 0 4 4 5 6 12 15 17 19 18 21 24 32 31 29 27 22 20 16 17 16 14 13 15 21 25 28 25 37 31 31 35
8 8 7 9 9 7 4 1 2 1 1 1 2 5 4 6 12 14 15 18 19 21 26 34 33 35 34 29 23 19 16 15 15 11 20 19 25 25 20 28 28 31 33 36
15 13 10 16 11 7 2 2 1 2 1 3 6 5 5 5 12 16 17 18 21 23 36 36 35 32 27 18 17 21 19 17 13 22 22 23 26 29 27 29 29 31 33 33
9 10 13 12 7 6 4 4 2 3 6 8 4 4 9 8 12 15 14 19 22 32 37 33 31 26 7 9 24 25 22 17 22 22 23 24 27 29 31 29 28 28 29 35
17 14 11 9 3 4 4 2 3 4 4 6 3 6 10 11 12 15 18 21 24 31 34 33 33 30 9 18 23 24 20 24 24 23 25 27 28 29 29 30 29 30 31 31
6 7 7 6 5 4 4 5 4 5 4 1 3 7 10 12 16 18 18 21 23 27 35 35 36 35 16 18 19 21 24 28 26 27 28 27 28 29 30 31 32 30 29 29
5 6 5 5 4 5 6 4 4 4 1 3 3 8 10 14 15 17 17 21 26 27 34 33 33 30 14 20 22 23 25 28 29 27 27 27 28 28 30 30 30 29 29 30
8 8 6 5 5 6 5 8 6 2 2 2 6 9 11 13 11 16 19 21 24 26 31 35 38 33 17 18 22 23 24 25 25 26 26 26 26 28 28 29 29 30 28 25
9 6 6 8 10 9 8 7 2 3 5 3 8 9 9 12 14 15 21 20 25 22 32 36 39 34 23 14 21 22 23 23 24 25 26 28 27 26 28 29 29 30 30 30
3 7 4 2 6 9 8 2 3 7 4 5 8 10 11 14 14 15 18 15 18 19 26 33 34 33 25 9 19 21 23 24 25 26 28 27 28 26 25 27 29 29 30 32
5 12 10 11 9 9 6 4 7 8 5 8 9 9 9 12 13 15 15 15 26 28 27 28 26 30 25 8 16 22 23 24 26 26 27 27 27 25 26 27 27 28 31 33
3 6 6 8 9 8 7 8 9 8 7 9 9 10 11 13 16 18 15 17 24 24 24 29 28 29 25 13 15 21 23 25 24 25 26 27 27 27 27 27 27 29 33 33
4 5 5 7 10 9 11 10 9 9 8 8 9 11 11 10 14 14 12 23 25 23 23 25 25 28 27 21 12 20 22 24 23 24 25 26 27 29 29 28 30 34 34 33
10 11 11 13 13 13 10 8 9 9 7 8 9 11 12 14 14 16 16 18 23 23 21 22 22 29 30 26 16 18 21 24 23 24 25 27 28 29 31 33 34 35 33 32
12 11 10 11 10 7 7 6 6 7 7 8 10 11 11 12 13 15 17 18 20 23 22 22 21 23 29 29 25 13 20 22 26 27 27 28 31 31 32 33 34 34 32 31
11 9 8 7 6 5 5 5 4 6 8 8 9 10 11 12 13 15 17 18 19 20 22 22 22 21 28 29 27 19 12 17 20 23 24 26 29 31 32 32 32 31 30 30
8 7 5 5 5 5 6 6 6 7 6 7 8 8 10 11 13 14 16 19 19 20 21 23 22 22 21 25 27 27 7 14 17 20 21 25 27 29 30 31 31 29 28 28
Wind_Direction
255 266 275 266 277 282 264 252 242 279 268 274 270 269 253 257 231 239 279 282 279 287 295 339 354 355 0 1 358 350 343 341 337 332 329 325 321 246 197 186 188 171 159 146
288 287 274 277 269 264 267 270 246 262 277 275 268 271 252 284 252 294 315 310 305 287 306 331 331 341 353 359 354 352 344 339 334 330 333 319 314 302 179 172 162 151 144 142
275 293 301 280 245 245 260 237 216 265 261 304 8 109 41 82 311 283 291 297 304 277 268 240 276 331 348 351 351 349 336 338 335 331 331 333 245 294 151 143 139 137 136 135
274 323 254 242 277 251 245 264 281 289 293 288 26 120 166 252 283 308 309 302 310 291 280 258 298 330 341 344 344 339 329 331 333 333 331 333 234 231 137 136 136 135 131 129
254 202 295 295 296 280 194 288 315 113 353 5 39 160 302 284 311 293 291 285 293 303 297 270 336 333 327 335 341 329 325 330 329 328 324 317 281 132 125 131 130 126 125 127
185 247 252 253 316 352 78 284 259 202 16 26 39 13 264 302 305 297 323 326 319 327 318 306 325 328 318 317 334 322 329 325 323 322 319 309 282 125 119 115 111 124 123 131
244 254 287 266 302 341 82 242 302 328 133 162 192 206 251 296 318 331 334 325 327 323 317 308 315 317 311 307 319 324 320 317 314 317 318 322 176 130 123 112 110 109 111 118
279 242 264 303 293 338 264 295 287 346 212 237 265 300 310 326 333 333 323 331 317 299 305 314 319 316 302 298 308 316 311 309 306 309 316 310 131 126 126 118 110 107 105 103
194 257 296 314 285 280 266 258 248 214 228 239 291 327 324 320 321 313 315 319 327 316 310 309 311 314 305 301 301 303 296 294 299 307 312 176 145 117 115 120 118 117 114 112
318 256 274 297 294 288 289 245 233 222 199 254 332 329 307 328 314 307 314 312 320 314 302 290 298 308 295 289 289 286 278 277 287 296 301 153 137 129 124 125 121 123 121 116
272 279 284 281 278 290 291 218 160 157 189 82 10 317 302 310 306 306 312 318 320 310 306 303 309 302 294 287 279 266 256 259 267 282 147 133 126 131 134 138 141 137 135 134
256 256 246 265 289 308 334 287 227 168 50 344 275 304 306 316 316 318 322 328 322 320 316 311 307 298 290 278 259 235 223 227 236 161 130 120 109 97 118 135 138 137 137 136
253 272 273 278 280 265 248 255 278 38 307 288 314 325 327 306 327 336 336 332 328 323 317 312 306 299 297 270 221 196 192 202 184 133 129 121 116 111 104 99 117 130 137 137
252 272 279 263 247 249 213 217 288 334 328 322 313 347 348 335 339 340 337 336 334 323 317 324 327 335 22 142 162 166 175 176 136 133 131 125 123 121 119 118 112 108 121 130
258 254 245 261 241 202 182 215 276 313 317 340 17 357 5 345 338 336 346 341 331 323 331 341 348 357 89 129 143 153 156 137 133 130 128 127 124 124 123 120 117 118 121 125
260 265 252 247 247 259 192 222 262 281 311 329 5 5 357 356 353 353 354 350 343 335 340 348 355 357 122 124 133 128 129 136 133 128 126 127 129 127 126 126 126 127 128 131
237 271 235 224 196 220 221 230 236 260 188 91 23 11 4 3 0 357 353 359 344 345 348 352 353 6 130 133 130 127 132 133 132 130 131 132 131 131 131 130 131 133 137 146
227 247 233 215 188 211 222 233 231 190 144 92 49 25 6 10 355 358 352 355 356 353 353 354 359 14 73 132 140 134 132 134 134 132 132 131 131 132 132 132 132 132 135 141
247 227 234 225 207 191 190 210 216 98 115 65 49 28 2 10 1 5 6 2 2 352 349 357 2 13 44 128 147 141 136 133 132 132 131 129 128 131 133 136 136 138 142 150
84 66 57 164 181 172 163 178 112 110 88 58 50 33 14 16 9 12 14 2 357 349 1 8 6 13 23 88 139 137 136 136 134 132 135 134 134 133 134 136 139 141 146 155
189 131 113 93 88 105 121 131 120 107 77 54 49 35 21 27 17 5 11 2 3 6 16 9 11 14 18 72 141 140 137 134 134 136 136 134 133 134 136 139 140 144 151 158
77 119 125 123 116 101 95 101 109 105 70 52 42 40 30 30 22 20 22 9 6 13 16 11 12 14 29 51 127 137 134 136 138 139 138 140 139 140 141 143 144 148 158 162
56 119 132 126 111 101 94 93 88 79 61 49 35 43 36 42 27 16 4 13 16 19 22 14 15 17 33 38 90 134 135 136 140 141 142 144 146 147 147 148 151 159 163 166
75 90 94 104 105 96 81 72 74 70 54 50 45 45 40 32 32 28 22 17 20 22 27 20 24 22 28 35 53 125 140 144 146 148 147 151 152 151 152 158 161 167 167 168
70 79 87 88 85 79 80 67 60 56 52 41 45 45 42 41 36 21 25 22 22 26 28 28 27 32 29 27 37 99 139 151 155 155 154 156 158 157 160 167 169 171 172 173
54 59 67 70 66 58 49 39 29 22 33 31 36 41 39 36 34 29 29 29 24 24 27 29 26 38 33 25 35 39 131 157 162 165 165 166 166 166 169 172 172 174 175 175
49 47 47 50 46 38 28 25 19 13 17 30 26 33 35 30 34 31 27 28 26 24 24 28 29 33 45 30 26 37 78 155 177 172 169 171 173 174 175 176 176 176 176 176